Darstellungsparameter: Aktuell verwendete Einstellungen:
Skalierung der Graphiken ... ?
xyx+y,   Skalierungsfaktor:      Skalierung: Modus: x, Faktor: 1
Darstellungszeitraum ... ?
Vom - - bis: - -   Zeitraum: 22.04.2019 - 21.04.2020
Min/Max/Avg-Anzeige ... ?
Zeige MMA aktuell
Zeige MMA Monat
Zeige MMA alles
Zeige --A aktuell
Zeige --A Monat
Zeige --A alles
Keine MMA-Anzeige
MMA:
Keine MMA-Graphiken
MMA-Basis: 22.04.2019 - 21.04.2020
Quicknavigation für Darstellung... ?
Tage:      1T, 2T, 3T, 5T -1T -2T -3T -5T +1T +2T +3T +5T
Wochen: 1W, 2W, 3W -1W -2W -3W +1W +2W +3W
Monate: 1M, 3M, 6M -1M -3M -6M +1M +3M +6M
Jahre:    1J, 3J, 5J, 10J -1J -3J -5J -10J +1J +3J +5J +10J
Nutze für die Darstellung ... ?
Originaldaten oder ...
Mittelwerte Minima Maxima auf...
Stundenbasis Tagesbasis Wochenbasis
Monatsbasis Jahresbasis      Datenbasis: Mittelwerte auf Tagesbasis
Darstellen als:
Statistik (Auto) Statistik J:M      Darstellung:
Zur Graphik,    zurück zur Übersicht aller Sensoren.
 
Tabellarische Datenbersicht: ?
 
Sensor: Nr:Datum:Temp:Feuchte:
Aussen-T/F 1 22-04-2019 00:00:00 14.7825 C 27.5667 %
2 23-04-2019 00:00:00 15.12667 C 20.1083 %
3 24-04-2019 00:00:00 15.10083 C 30.7083 %
4 25-04-2019 00:00:00 13.2425 C 38.0667 %
5 26-04-2019 00:00:00 11.8 C 32.0000 %
6 27-04-2019 00:00:00 9.01583 C 40.3667 %
7 28-04-2019 00:00:00 8.43333 C 30.9750 %
8 29-04-2019 00:00:00 8.62417 C 38.4083 %
9 30-04-2019 00:00:00 13.94583 C 26.0833 %
10 01-05-2019 00:00:00 13.03833 C 29.5000 %
11 02-05-2019 00:00:00 12.08333 C 31.3667 %
12 03-05-2019 00:00:00 11.20833 C 25.1500 %
13 04-05-2019 00:00:00 6.17583 C 33.4500 %
14 05-05-2019 00:00:00 6.66333 C 32.0417 %
15 06-05-2019 00:00:00 7.6075 C 30.6583 %
16 07-05-2019 00:00:00 9.645 C 28.6167 %
17 08-05-2019 00:00:00 9.105 C 38.9750 %
18 09-05-2019 00:00:00 11.085 C 36.9583 %
19 10-05-2019 00:00:00 12.44538 C 33.3866 %
20 11-05-2019 00:00:00 9.52833 C 47.9417 %
21 12-05-2019 00:00:00 9.4 C 31.3083 %
22 13-05-2019 00:00:00 9.985 C 30.9083 %
23 14-05-2019 00:00:00 9.66333 C 26.4333 %
24 15-05-2019 00:00:00 10.57083 C 24.3500 %
25 16-05-2019 00:00:00 10.61167 C 23.0917 %
Sensor: Nr:Datum:Temp:Feuchte:
Aussen-T/F 26 17-05-2019 00:00:00 11.4775 C 39.7250 %
27 18-05-2019 00:00:00 14.67167 C 39.3500 %
28 19-05-2019 00:00:00 15.91083 C 38.3750 %
29 20-05-2019 00:00:00 13.655 C 37.8667 %
30 21-05-2019 00:00:00 11.88167 C 45.6167 %
31 22-05-2019 00:00:00 13.2875 C 33.7833 %
32 23-05-2019 00:00:00 15.22667 C 33.1417 %
33 24-05-2019 00:00:00 17.24 C 28.7500 %
34 25-05-2019 00:00:00 15.89917 C 22.8167 %
35 26-05-2019 00:00:00 16.26667 C 29.2667 %
36 27-05-2019 00:00:00 14.66667 C 40.5417 %
37 28-05-2019 00:00:00 14.29917 C 38.6250 %
38 29-05-2019 00:00:00 15.28667 C 25.9000 %
39 30-05-2019 00:00:00 15.82833 C 28.8250 %
40 31-05-2019 00:00:00 19.45583 C 30.4167 %
41 01-06-2019 00:00:00 20.21917 C 30.3583 %
42 02-06-2019 00:00:00 22.16417 C 30.0500 %
43 03-06-2019 00:00:00 21.1475 C 27.1667 %
44 04-06-2019 00:00:00 21.80333 C 28.3333 %
45 05-06-2019 00:00:00 23.57917 C 22.7833 %
46 06-06-2019 00:00:00 16.14167 C 28.3667 %
47 07-06-2019 00:00:00 16.10083 C 29.5250 %
48 08-06-2019 00:00:00 16.40917 C 20.2667 %
49 09-06-2019 00:00:00 16.72333 C 27.7667 %
50 10-06-2019 00:00:00 19.705 C 23.4750 %
Sensor: Nr:Datum:Temp:Feuchte:
Aussen-T/F 51 11-06-2019 00:00:00 17.38 C 32.4667 %
52 12-06-2019 00:00:00 16.405 C 33.2917 %
53 13-06-2019 00:00:00 16.27917 C 34.4333 %
54 14-06-2019 00:00:00 18.17 C 35.6583 %
55 15-06-2019 00:00:00 19.72583 C 33.0250 %
56 16-06-2019 00:00:00 19.94417 C 24.9167 %
57 17-06-2019 00:00:00 19.5125 C 29.1250 %
58 18-06-2019 00:00:00 22.02333 C 27.1333 %
59 19-06-2019 00:00:00 22.62583 C 27.6917 %
60 20-06-2019 00:00:00 20 C 28.0167 %
61 21-06-2019 00:00:00 19.3425 C 27.3333 %
62 22-06-2019 00:00:00 19.82667 C 26.6167 %
63 23-06-2019 00:00:00 22.3125 C 27.3750 %
64 24-06-2019 00:00:00 24.96167 C 26.2167 %
65 25-06-2019 00:00:00 26.83333 C 24.5583 %
66 26-06-2019 00:00:00 27.635 C 23.0833 %
67 27-06-2019 00:00:00 25.18917 C 20.6083 %
68 28-06-2019 00:00:00 22.44833 C 23.4333 %
69 29-06-2019 00:00:00 24.38417 C 22.1750 %
70 30-06-2019 00:00:00 26.0575 C 22.2333 %
71 01-07-2019 00:00:00 23.3825 C 20.0000 %
72 02-07-2019 00:00:00 19.63333 C 21.8667 %
73 03-07-2019 00:00:00 18.14583 C 22.9833 %
74 04-07-2019 00:00:00 18.95917 C 21.7583 %
75 05-07-2019 00:00:00 21.28 C 20.0000 %
Sensor: Nr:Datum:Temp:Feuchte:
Aussen-T/F 76 06-07-2019 00:00:00 21.86 C 21.2917 %
77 07-07-2019 00:00:00 17.9975 C 24.5833 %
78 08-07-2019 00:00:00 14.77583 C 24.3917 %
79 09-07-2019 00:00:00 15.65583 C 24.6667 %
80 10-07-2019 00:00:00 17.64083 C 24.2083 %
81 11-07-2019 00:00:00 17.65083 C 31.2583 %
82 12-07-2019 00:00:00 17.16583 C 43.6333 %
83 13-07-2019 00:00:00 17.9575 C 34.1250 %
84 14-07-2019 00:00:00 17.12917 C 26.6667 %
85 15-07-2019 00:00:00 16.56667 C 21.0917 %
86 16-07-2019 00:00:00 16.26 C 28.0333 %
87 17-07-2019 00:00:00 17.56833 C 29.2083 %
88 18-07-2019 00:00:00 19.38333 C 28.1917 %
89 19-07-2019 00:00:00 20.12667 C 31.9750 %
90 20-07-2019 00:00:00 21.81667 C 30.3083 %
91 21-07-2019 00:00:00 22.37333 C 25.8833 %
92 22-07-2019 00:00:00 22.7225 C 26.2833 %
93 23-07-2019 00:00:00 25.34083 C 25.5333 %
94 24-07-2019 00:00:00 27.1975 C 24.2750 %
95 25-07-2019 00:00:00 28.90167 C 21.7333 %
96 26-07-2019 00:00:00 27.54417 C 21.2500 %
97 27-07-2019 00:00:00 23.4375 C 26.6833 %
98 28-07-2019 00:00:00 19.93083 C 38.1333 %
99 29-07-2019 00:00:00 21.45583 C 29.3333 %
100 30-07-2019 00:00:00 22.35833 C 26.7167 %
Sensor: Nr:Datum:Temp:Feuchte:
Aussen-T/F 101 31-07-2019 00:00:00 21.48417 C 20.5333 %
102 01-08-2019 00:00:00 19.83417 C 22.9750 %
103 02-08-2019 00:00:00 20.8775 C 22.8500 %
104 03-08-2019 00:00:00 20.77167 C 24.6333 %
105 04-08-2019 00:00:00 21.00667 C 28.3000 %
106 05-08-2019 00:00:00 22.56833 C 24.9167 %
107 06-08-2019 00:00:00 20.0075 C 30.3333 %
108 07-08-2019 00:00:00 19.10167 C 41.3833 %
109 08-08-2019 00:00:00 20.55667 C 30.6417 %
110 09-08-2019 00:00:00 19.73833 C 39.4583 %
111 10-08-2019 00:00:00 20.72917 C 37.6833 %
112 11-08-2019 00:00:00 17.03333 C 35.9000 %
113 12-08-2019 00:00:00 16.51583 C 38.9833 %
114 13-08-2019 00:00:00 16.10833 C 35.2833 %
115 14-08-2019 00:00:00 16.6875 C 34.0417 %
116 15-08-2019 00:00:00 17.20583 C 40.0250 %
117 16-08-2019 00:00:00 17.84 C 34.2250 %
118 17-08-2019 00:00:00 17.89333 C 38.0750 %
119 18-08-2019 00:00:00 19.71833 C 44.5000 %
120 19-08-2019 00:00:00 18.45167 C 33.8417 %
121 20-08-2019 00:00:00 15.91167 C 33.3250 %
122 21-08-2019 00:00:00 16.52917 C 33.4750 %
123 22-08-2019 00:00:00 17.12333 C 32.3667 %
124 23-08-2019 00:00:00 18.31667 C 31.5083 %
125 24-08-2019 00:00:00 19.36333 C 30.9833 %
Sensor: Nr:Datum:Temp:Feuchte:
Aussen-T/F 126 25-08-2019 00:00:00 21.54583 C 29.8917 %
127 26-08-2019 00:00:00 22.17 C 33.4833 %
128 27-08-2019 00:00:00 22.70333 C 35.1667 %
129 28-08-2019 00:00:00 23.4425 C 30.4583 %
130 29-08-2019 00:00:00 22.20333 C 28.3583 %
131 30-08-2019 00:00:00 21.07 C 29.2583 %
132 31-08-2019 00:00:00 21.975 C 30.7583 %
133 01-09-2019 00:00:00 18.8525 C 26.8333 %
134 02-09-2019 00:00:00 15.49333 C 28.2000 %
135 03-09-2019 00:00:00 15.72917 C 28.0833 %
136 04-09-2019 00:00:00 16.9525 C 33.9667 %
137 05-09-2019 00:00:00 15.59 C 26.2917 %
138 06-09-2019 00:00:00 13.58917 C 31.1917 %
139 07-09-2019 00:00:00 12.6975 C 39.5000 %
140 08-09-2019 00:00:00 12.7439 C 48.5935 %
141 09-09-2019 00:00:00 15.23733 C 38.6667 %
142 10-09-2019 00:00:00 12.20486 C 22.8264 %
143 11-09-2019 00:00:00 13.35556 C 20.8472 %
144 12-09-2019 00:00:00 19.325 C 20.0000 %
145 13-09-2019 00:00:00 17.86806 C 20.1111 %
146 14-09-2019 00:00:00 15.93333 C 22.4375 %
147 15-09-2019 00:00:00 15.65694 C 21.2778 %
148 16-09-2019 00:00:00 16.21389 C 20.0000 %
149 17-09-2019 00:00:00 15.87708 C 20.0000 %
150 18-09-2019 00:00:00 11.47361 C 20.7917 %
Sensor: Nr:Datum:Temp:Feuchte:
Aussen-T/F 151 19-09-2019 00:00:00 10.53333 C 21.8194 %
152 20-09-2019 00:00:00 10.80486 C 20.8472 %
153 21-09-2019 00:00:00 12.45278 C 20.6597 %
154 22-09-2019 00:00:00 14.78542 C 20.7500 %
155 23-09-2019 00:00:00 16.6875 C 22.1528 %
156 24-09-2019 00:00:00 13.94306 C 26.6319 %
157 25-09-2019 00:00:00 15.31806 C 25.0417 %
158 26-09-2019 00:00:00 16.10903 C 26.0000 %
159 27-09-2019 00:00:00 16.23333 C 23.7708 %
160 28-09-2019 00:00:00 15.40208 C 22.5833 %
161 29-09-2019 00:00:00 16.05972 C 21.6597 %
162 30-09-2019 00:00:00 15.48194 C 21.1319 %
163 01-10-2019 00:00:00 15.84375 C 23.4931 %
164 02-10-2019 00:00:00 12.57569 C 23.6111 %
165 03-10-2019 00:00:00 9.35625 C 27.6944 %
166 04-10-2019 00:00:00 10.03681 C 31.8403 %
167 05-10-2019 00:00:00 10.32986 C 26.5903 %
168 06-10-2019 00:00:00 7.85764 C 34.1250 %
169 07-10-2019 00:00:00 9.80764 C 31.8819 %
170 08-10-2019 00:00:00 12.35833 C 31.0694 %
171 09-10-2019 00:00:00 11.56667 C 27.7431 %
172 10-10-2019 00:00:00 11.49097 C 26.2153 %
173 11-10-2019 00:00:00 12.41458 C 28.8194 %
174 12-10-2019 00:00:00 13.21111 C 29.6875 %
175 13-10-2019 00:00:00 16.35417 C 28.4722 %
Sensor: Nr:Datum:Temp:Feuchte:
Aussen-T/F 176 14-10-2019 00:00:00 15.8125 C 27.6528 %
177 15-10-2019 00:00:00 13.94028 C 29.8611 %
178 16-10-2019 00:00:00 12.42153 C 29.2917 %
179 17-10-2019 00:00:00 14.32708 C 27.4167 %
180 18-10-2019 00:00:00 12.3125 C 29.7292 %
181 19-10-2019 00:00:00 12.78194 C 28.2083 %
182 20-10-2019 00:00:00 13.0875 C 34.7778 %
183 21-10-2019 00:00:00 13.30486 C 29.2014 %
184 22-10-2019 00:00:00 11.45 C 27.8819 %
185 23-10-2019 00:00:00 10.68403 C 31.1181 %
186 24-10-2019 00:00:00 13.85208 C 27.9236 %
187 25-10-2019 00:00:00 13.1625 C 24.9444 %
188 26-10-2019 00:00:00 12.72639 C 27.5417 %
189 27-10-2019 00:00:00 9.68467 C 30.8733 %
190 28-10-2019 00:00:00 5.91597 C 35.2014 %
191 29-10-2019 00:00:00 6.21181 C 29.3264 %
192 30-10-2019 00:00:00 2.93333 C 34.5347 %
193 31-10-2019 00:00:00 1.41875 C 34.8333 %
194 01-11-2019 00:00:00 5.44792 C 36.7292 %
195 02-11-2019 00:00:00 12.8125 C 27.6458 %
196 03-11-2019 00:00:00 11.45069 C 29.7639 %
197 04-11-2019 00:00:00 9.88542 C 30.2153 %
198 05-11-2019 00:00:00 9.25069 C 27.4306 %
199 06-11-2019 00:00:00 8.33542 C 34.7014 %
200 07-11-2019 00:00:00 7.30278 C 33.8333 %
Sensor: Nr:Datum:Temp:Feuchte:
Aussen-T/F 201 08-11-2019 00:00:00 4.29028 C 37.7153 %
202 09-11-2019 00:00:00 4.26806 C 33.1111 %
203 10-11-2019 00:00:00 2.51319 C 34.9861 %
204 11-11-2019 00:00:00 4.2 C 27.4792 %
205 12-11-2019 00:00:00 5.41667 C 25.4792 %
206 13-11-2019 00:00:00 4.93472 C 22.9861 %
207 14-11-2019 00:00:00 4.86042 C 26.9861 %
208 15-11-2019 00:00:00 4.08472 C 26.3333 %
209 16-11-2019 00:00:00 1.19444 C 38.8125 %
210 17-11-2019 00:00:00 2.39861 C 40.2708 %
211 18-11-2019 00:00:00 3.51667 C 36.2847 %
212 19-11-2019 00:00:00 3.06736 C 36.5833 %
213 20-11-2019 00:00:00 0.75972 C 37.8403 %
214 21-11-2019 00:00:00 1.18951 C 39.3846 %
215 22-11-2019 00:00:00 3.65972 C 35.6806 %
216 23-11-2019 00:00:00 4.64653 C 33.3889 %
217 24-11-2019 00:00:00 1.99861 C 41.4722 %
218 25-11-2019 00:00:00 4.16319 C 39.3681 %
219 26-11-2019 00:00:00 7.75903 C 34.8472 %
220 27-11-2019 00:00:00 9.72083 C 30.6875 %
221 28-11-2019 00:00:00 10.55833 C 22.1319 %
222 29-11-2019 00:00:00 5.75486 C 30.7639 %
223 30-11-2019 00:00:00 0.48194 C 42.0972 %
224 01-12-2019 00:00:00 1.14236 C 33.0139 %
225 02-12-2019 00:00:00 1.20556 C 36.2986 %
Sensor: Nr:Datum:Temp:Feuchte:
Aussen-T/F 226 03-12-2019 00:00:00 3.97431 C 39.2292 %
227 04-12-2019 00:00:00 0.41389 C 41.6111 %
228 05-12-2019 00:00:00 -2.03194 C 42.0972 %
229 06-12-2019 00:00:00 2.6125 C 34.4722 %
230 07-12-2019 00:00:00 8.20694 C 27.7292 %
231 08-12-2019 00:00:00 9.69931 C 24.2778 %
232 09-12-2019 00:00:00 7.09444 C 23.9722 %
233 10-12-2019 00:00:00 2.37361 C 34.0000 %
234 11-12-2019 00:00:00 3.12569 C 39.3056 %
235 12-12-2019 00:00:00 2.64931 C 37.2500 %
236 13-12-2019 00:00:00 3.25278 C 34.0069 %
237 14-12-2019 00:00:00 6.22222 C 28.0625 %
238 15-12-2019 00:00:00 7.24792 C 30.8958 %
239 16-12-2019 00:00:00 7.47361 C 39.2986 %
240 17-12-2019 00:00:00 9.69514 C 31.9653 %
241 18-12-2019 00:00:00 6.95069 C 37.4792 %
242 19-12-2019 00:00:00 4.60972 C 40.5417 %
243 20-12-2019 00:00:00 6.87778 C 35.7847 %
244 21-12-2019 00:00:00 6.42778 C 32.4306 %
245 22-12-2019 00:00:00 7.57917 C 31.0556 %
246 23-12-2019 00:00:00 7.34861 C 28.6111 %
247 24-12-2019 00:00:00 7.20278 C 29.9097 %
248 25-12-2019 00:00:00 6.91944 C 32.8333 %
249 26-12-2019 00:00:00 4.25278 C 40.6250 %
250 27-12-2019 00:00:00 4.41181 C 36.8819 %
Sensor: Nr:Datum:Temp:Feuchte:
Aussen-T/F 251 28-12-2019 00:00:00 -1.22431 C 42.5000 %
252 29-12-2019 00:00:00 -2.07708 C 39.8819 %
253 30-12-2019 00:00:00 -1.99931 C 39.1319 %
254 31-12-2019 00:00:00 -0.41736 C 39.5556 %
255 01-01-2020 00:00:00 -0.10764 C 41.3403 %
256 02-01-2020 00:00:00 0.98958 C 39.7014 %
257 03-01-2020 00:00:00 7.00972 C 33.4653 %
258 04-01-2020 00:00:00 4.78264 C 32.5903 %
259 05-01-2020 00:00:00 5.21806 C 35.8750 %
260 06-01-2020 00:00:00 2.11667 C 38.1667 %
261 07-01-2020 00:00:00 4.43611 C 34.6944 %
262 08-01-2020 00:00:00 7.71389 C 34.4167 %
263 09-01-2020 00:00:00 10.33542 C 35.2292 %
264 10-01-2020 00:00:00 8.27917 C 30.8958 %
265 11-01-2020 00:00:00 3.61806 C 33.7639 %
266 12-01-2020 00:00:00 4.57083 C 30.3889 %
267 13-01-2020 00:00:00 5.88472 C 35.0903 %
268 14-01-2020 00:00:00 9.28264 C 24.1181 %
269 15-01-2020 00:00:00 10.27083 C 23.7500 %
270 16-01-2020 00:00:00 7.07569 C 40.1944 %
271 17-01-2020 00:00:00 5.27986 C 39.1944 %
272 18-01-2020 00:00:00 3.79028 C 32.6042 %
273 19-01-2020 00:00:00 3.01389 C 40.8194 %
274 20-01-2020 00:00:00 1.64861 C 39.3889 %
275 21-01-2020 00:00:00 -2.675 C 44.7986 %
Sensor: Nr:Datum:Temp:Feuchte:
Aussen-T/F 276 22-01-2020 00:00:00 -1.95347 C 44.7153 %
277 23-01-2020 00:00:00 0.53819 C 43.6458 %
278 24-01-2020 00:00:00 0.81319 C 35.7222 %
279 25-01-2020 00:00:00 1.99236 C 39.2014 %
280 26-01-2020 00:00:00 2.13056 C 41.5625 %
281 27-01-2020 00:00:00 5.48542 C 39.8264 %
282 28-01-2020 00:00:00 5.07708 C 30.3750 %
283 29-01-2020 00:00:00 4.20764 C 29.8611 %
284 30-01-2020 00:00:00 7.57569 C 29.5694 %
285 31-01-2020 00:00:00 12.86181 C 27.9167 %
286 01-02-2020 00:00:00 11.16597 C 32.0972 %
287 02-02-2020 00:00:00 9.925 C 31.1319 %
288 03-02-2020 00:00:00 10.19236 C 29.5139 %
289 04-02-2020 00:00:00 4.29514 C 36.4097 %
290 05-02-2020 00:00:00 3.05069 C 37.1458 %
291 06-02-2020 00:00:00 0.04514 C 42.7500 %
292 07-02-2020 00:00:00 -0.30764 C 42.8264 %
293 08-02-2020 00:00:00 1.01389 C 43.0069 %
294 09-02-2020 00:00:00 8.36458 C 32.5764 %
295 10-02-2020 00:00:00 7.85 C 31.3611 %
296 11-02-2020 00:00:00 5.29167 C 24.6597 %
297 12-02-2020 00:00:00 4.32083 C 30.5972 %
298 13-02-2020 00:00:00 3.32917 C 42.1250 %
299 14-02-2020 00:00:00 5.46458 C 39.2639 %
300 15-02-2020 00:00:00 5.89931 C 38.0278 %
Sensor: Nr:Datum:Temp:Feuchte:
Aussen-T/F 301 16-02-2020 00:00:00 14.44931 C 23.2431 %
302 17-02-2020 00:00:00 8.25903 C 32.4167 %
303 18-02-2020 00:00:00 6.89097 C 31.0347 %
304 19-02-2020 00:00:00 5.73889 C 30.1875 %
305 20-02-2020 00:00:00 7.7125 C 32.9722 %
306 21-02-2020 00:00:00 4.71042 C 33.5972 %
307 22-02-2020 00:00:00 7.67986 C 30.0347 %
308 23-02-2020 00:00:00 10.01389 C 35.3403 %
309 24-02-2020 00:00:00 7.74653 C 36.3194 %
310 25-02-2020 00:00:00 8.81597 C 32.2778 %
311 26-02-2020 00:00:00 4.37431 C 33.6806 %
312 27-02-2020 00:00:00 2.22153 C 41.6806 %
313 28-02-2020 00:00:00 3.52431 C 38.4514 %
314 29-02-2020 00:00:00 8.60556 C 34.8889 %
315 01-03-2020 00:00:00 7.15694 C 36.0000 %
316 02-03-2020 00:00:00 5.99375 C 40.1667 %
317 03-03-2020 00:00:00 4.26806 C 39.6458 %
318 04-03-2020 00:00:00 5.28958 C 37.5764 %
319 05-03-2020 00:00:00 5.45764 C 43.0833 %
320 06-03-2020 00:00:00 5.63958 C 40.4931 %
321 07-03-2020 00:00:00 6.26458 C 33.7569 %
322 08-03-2020 00:00:00 9.46458 C 32.2361 %
323 09-03-2020 00:00:00 7.81875 C 35.4514 %
324 10-03-2020 00:00:00 9.06181 C 39.4514 %
325 11-03-2020 00:00:00 14.0375 C 35.2639 %
Sensor: Nr:Datum:Temp:Feuchte:
Aussen-T/F 326 12-03-2020 00:00:00 11.01597 C 30.3681 %
327 13-03-2020 00:00:00 6.99236 C 33.4236 %
328 14-03-2020 00:00:00 5.89028 C 38.1667 %
329 15-03-2020 00:00:00 9.14653 C 32.2153 %
330 16-03-2020 00:00:00 9.43264 C 35.6667 %
331 17-03-2020 00:00:00 12.02708 C 33.7847 %
332 18-03-2020 00:00:00 9.92639 C 36.2153 %
333 19-03-2020 00:00:00 12.58194 C 32.0417 %
334 20-03-2020 00:00:00 10.52657 C 36.2308 %
335 21-03-2020 00:00:00 5.89653 C 34.6597 %
336 22-03-2020 00:00:00 4.30139 C 28.5278 %
337 23-03-2020 00:00:00 3.12292 C 27.0764 %
338 24-03-2020 00:00:00 2.82431 C 27.8403 %
339 25-03-2020 00:00:00 3.67014 C 25.0486 %
340 26-03-2020 00:00:00 5.25486 C 23.4931 %
341 27-03-2020 00:00:00 8.10139 C 29.8819 %
342 28-03-2020 00:00:00 9.69236 C 30.9306 %
343 29-03-2020 00:00:00 5.0942 C 30.1377 %
344 30-03-2020 00:00:00 2.89028 C 29.9167 %
345 31-03-2020 00:00:00 5.79792 C 30.1528 %
346 01-04-2020 00:00:00 4.16111 C 29.6944 %
347 02-04-2020 00:00:00 5.26806 C 31.1944 %
348 03-04-2020 00:00:00 7.93542 C 28.5069 %
349 04-04-2020 00:00:00 6.89375 C 31.8958 %
350 05-04-2020 00:00:00 9.74514 C 32.0625 %
Sensor: Nr:Datum:Temp:Feuchte:
Aussen-T/F 351 06-04-2020 00:00:00 12.17708 C 29.7431 %
352 07-04-2020 00:00:00 14.2875 C 28.9028 %
353 08-04-2020 00:00:00 15.02153 C 31.1528 %
354 09-04-2020 00:00:00 15.89514 C 27.6458 %
355 10-04-2020 00:00:00 14.80972 C 29.8333 %
356 11-04-2020 00:00:00 14.775 C 25.4861 %
357 12-04-2020 00:00:00 15.71319 C 27.3056 %
358 13-04-2020 00:00:00 9.43542 C 29.6944 %
359 14-04-2020 00:00:00 6.54583 C 28.1042 %
360 15-04-2020 00:00:00 9.17222 C 30.8750 %
361 16-04-2020 00:00:00 13.09792 C 29.6667 %
362 17-04-2020 00:00:00 15.68056 C 30.2500 %
363 18-04-2020 00:00:00 14.81597 C 32.5000 %
364 19-04-2020 00:00:00 13.35694 C 32.8889 %
365 20-04-2020 00:00:00 12.80069 C 22.9861 %
366 21-04-2020 00:00:00 13.68472 C 21.3889 %
Sensor: Nr:Datum:Temp:Feuchte:
G-T/H 1 22-04-2019 00:00:00 15.22333 C 52.2417 %
2 23-04-2019 00:00:00 15.61417 C 53.2333 %
3 24-04-2019 00:00:00 15.37833 C 59.4167 %
4 25-04-2019 00:00:00 14.5575 C 61.5833 %
5 26-04-2019 00:00:00 14.28667 C 64.1250 %
6 27-04-2019 00:00:00 13.445 C 64.1833 %
7 28-04-2019 00:00:00 12.45 C 64.1833 %
8 29-04-2019 00:00:00 11.95083 C 63.4083 %
9 30-04-2019 00:00:00 13.89833 C 57.8083 %
10 01-05-2019 00:00:00 14.135 C 60.2833 %
11 02-05-2019 00:00:00 13.82333 C 62.1750 %
12 03-05-2019 00:00:00 13.86417 C 59.4750 %
13 04-05-2019 00:00:00 12.72083 C 59.0083 %
14 05-05-2019 00:00:00 11.31667 C 59.7917 %
15 06-05-2019 00:00:00 11.38833 C 61.2833 %
16 07-05-2019 00:00:00 11.88083 C 62.6250 %
17 08-05-2019 00:00:00 11.97 C 62.9333 %
18 09-05-2019 00:00:00 12.35167 C 66.7333 %
19 10-05-2019 00:00:00 12.92101 C 67.6218 %
20 11-05-2019 00:00:00 13.15833 C 68.0833 %
21 12-05-2019 00:00:00 12.12833 C 64.0833 %
22 13-05-2019 00:00:00 12.045 C 60.0000 %
23 14-05-2019 00:00:00 12.31083 C 59.7417 %
24 15-05-2019 00:00:00 12.7725 C 52.9833 %
25 16-05-2019 00:00:00 13.015 C 56.6333 %
Sensor: Nr:Datum:Temp:Feuchte:
G-T/H 26 17-05-2019 00:00:00 13.21917 C 63.1000 %
27 18-05-2019 00:00:00 14.04667 C 66.4250 %
28 19-05-2019 00:00:00 14.825 C 68.0750 %
29 20-05-2019 00:00:00 14.84583 C 68.8000 %
30 21-05-2019 00:00:00 14.15167 C 70.0167 %
31 22-05-2019 00:00:00 13.71167 C 69.7583 %
32 23-05-2019 00:00:00 15.29917 C 61.3750 %
33 24-05-2019 00:00:00 17.54 C 55.6333 %
34 25-05-2019 00:00:00 17.29083 C 56.6250 %
35 26-05-2019 00:00:00 16.44583 C 60.8167 %
36 27-05-2019 00:00:00 16.3925 C 64.3917 %
37 28-05-2019 00:00:00 15.71583 C 66.5333 %
38 29-05-2019 00:00:00 16.0475 C 54.4250 %
39 30-05-2019 00:00:00 15.75417 C 61.4167 %
40 31-05-2019 00:00:00 17.74167 C 65.2667 %
41 01-06-2019 00:00:00 18.025 C 65.0750 %
42 02-06-2019 00:00:00 18.60667 C 66.0917 %
43 03-06-2019 00:00:00 19.92333 C 65.8667 %
44 04-06-2019 00:00:00 19.69667 C 66.1500 %
45 05-06-2019 00:00:00 20.025 C 66.6917 %
46 06-06-2019 00:00:00 19.2775 C 64.1917 %
47 07-06-2019 00:00:00 17.86583 C 60.1250 %
48 08-06-2019 00:00:00 17.565 C 60.2333 %
49 09-06-2019 00:00:00 16.99667 C 61.5667 %
50 10-06-2019 00:00:00 17.96333 C 64.8583 %
Sensor: Nr:Datum:Temp:Feuchte:
G-T/H 51 11-06-2019 00:00:00 18.18333 C 66.3917 %
52 12-06-2019 00:00:00 17.70333 C 67.3917 %
53 13-06-2019 00:00:00 17.89167 C 58.1667 %
54 14-06-2019 00:00:00 19.59083 C 60.6083 %
55 15-06-2019 00:00:00 19.6625 C 64.9917 %
56 16-06-2019 00:00:00 19.56917 C 62.4417 %
57 17-06-2019 00:00:00 19.01167 C 62.8417 %
58 18-06-2019 00:00:00 21.23667 C 58.9250 %
59 19-06-2019 00:00:00 21.53167 C 61.1000 %
60 20-06-2019 00:00:00 20.7375 C 63.5667 %
61 21-06-2019 00:00:00 20.53083 C 52.5000 %
62 22-06-2019 00:00:00 20.16917 C 54.8083 %
63 23-06-2019 00:00:00 21.31917 C 57.1667 %
64 24-06-2019 00:00:00 23.94167 C 55.3000 %
65 25-06-2019 00:00:00 23.93083 C 58.5083 %
66 26-06-2019 00:00:00 24.37417 C 62.9417 %
67 27-06-2019 00:00:00 23.60667 C 60.8333 %
68 28-06-2019 00:00:00 22.21417 C 58.6667 %
69 29-06-2019 00:00:00 24.105 C 45.4667 %
70 30-06-2019 00:00:00 23.46833 C 52.6667 %
71 01-07-2019 00:00:00 23.14417 C 56.9333 %
72 02-07-2019 00:00:00 21.5975 C 49.7667 %
73 03-07-2019 00:00:00 20.46667 C 46.5000 %
74 04-07-2019 00:00:00 20.24 C 44.2750 %
75 05-07-2019 00:00:00 20.99583 C 47.4667 %
Sensor: Nr:Datum:Temp:Feuchte:
G-T/H 76 06-07-2019 00:00:00 21.055 C 53.0250 %
77 07-07-2019 00:00:00 20.39667 C 54.9083 %
78 08-07-2019 00:00:00 18.37167 C 51.1250 %
79 09-07-2019 00:00:00 18.10583 C 49.1417 %
80 10-07-2019 00:00:00 18.91917 C 42.0333 %
81 11-07-2019 00:00:00 18.91167 C 59.7083 %
82 12-07-2019 00:00:00 18.3025 C 73.7917 %
83 13-07-2019 00:00:00 18.47333 C 67.7417 %
84 14-07-2019 00:00:00 18.46917 C 65.0917 %
85 15-07-2019 00:00:00 18.2725 C 59.6250 %
86 16-07-2019 00:00:00 17.95917 C 58.3667 %
87 17-07-2019 00:00:00 18.23667 C 61.2917 %
88 18-07-2019 00:00:00 19.79417 C 58.3083 %
89 19-07-2019 00:00:00 19.79417 C 61.5917 %
90 20-07-2019 00:00:00 19.78583 C 63.8500 %
91 21-07-2019 00:00:00 20.41333 C 63.8583 %
92 22-07-2019 00:00:00 22.33167 C 54.5167 %
93 23-07-2019 00:00:00 22.5225 C 56.8667 %
94 24-07-2019 00:00:00 23.21833 C 58.3417 %
95 25-07-2019 00:00:00 24.345 C 57.0083 %
96 26-07-2019 00:00:00 24.17667 C 57.8500 %
97 27-07-2019 00:00:00 23.54 C 61.3083 %
98 28-07-2019 00:00:00 22.08333 C 64.8167 %
99 29-07-2019 00:00:00 21.58833 C 59.7917 %
100 30-07-2019 00:00:00 21.785 C 58.7750 %
Sensor: Nr:Datum:Temp:Feuchte:
G-T/H 101 31-07-2019 00:00:00 22.4025 C 50.4333 %
102 01-08-2019 00:00:00 21.77083 C 49.7000 %
103 02-08-2019 00:00:00 21.34583 C 55.7750 %
104 03-08-2019 00:00:00 20.90667 C 59.1167 %
105 04-08-2019 00:00:00 20.4525 C 59.4750 %
106 05-08-2019 00:00:00 22.07 C 57.0167 %
107 06-08-2019 00:00:00 21.48083 C 59.7417 %
108 07-08-2019 00:00:00 21.08 C 63.1500 %
109 08-08-2019 00:00:00 20.60333 C 62.6167 %
110 09-08-2019 00:00:00 20.50167 C 64.6000 %
111 10-08-2019 00:00:00 20.38917 C 65.0917 %
112 11-08-2019 00:00:00 19.8725 C 64.3750 %
113 12-08-2019 00:00:00 19.0475 C 65.6000 %
114 13-08-2019 00:00:00 18.645 C 58.8417 %
115 14-08-2019 00:00:00 18.54583 C 57.0833 %
116 15-08-2019 00:00:00 18.91583 C 62.6250 %
117 16-08-2019 00:00:00 18.59917 C 65.5583 %
118 17-08-2019 00:00:00 18.78167 C 67.1583 %
119 18-08-2019 00:00:00 19.07417 C 68.7167 %
120 19-08-2019 00:00:00 19.70167 C 61.8833 %
121 20-08-2019 00:00:00 18.7775 C 58.6500 %
122 21-08-2019 00:00:00 18.37 C 62.6500 %
123 22-08-2019 00:00:00 18.7725 C 58.7167 %
124 23-08-2019 00:00:00 19.34333 C 56.0250 %
125 24-08-2019 00:00:00 19.1825 C 58.5917 %
Sensor: Nr:Datum:Temp:Feuchte:
G-T/H 126 25-08-2019 00:00:00 19.53 C 63.3500 %
127 26-08-2019 00:00:00 21.84417 C 64.5833 %
128 27-08-2019 00:00:00 21.31417 C 66.1667 %
129 28-08-2019 00:00:00 21.07 C 66.6583 %
130 29-08-2019 00:00:00 21.03417 C 66.8417 %
131 30-08-2019 00:00:00 20.6775 C 66.8917 %
132 31-08-2019 00:00:00 20.2775 C 66.5917 %
133 01-09-2019 00:00:00 20.59167 C 65.4167 %
134 02-09-2019 00:00:00 18.59583 C 51.3417 %
135 03-09-2019 00:00:00 16.5475 C 53.5583 %
136 04-09-2019 00:00:00 18.68667 C 56.9667 %
137 05-09-2019 00:00:00 18.34667 C 60.0000 %
138 06-09-2019 00:00:00 17.44333 C 56.1750 %
139 07-09-2019 00:00:00 17.36583 C 60.4417 %
140 08-09-2019 00:00:00 16.54309 C 65.9350 %
141 09-09-2019 00:00:00 16.06067 C 66.7333 %
142 10-09-2019 00:00:00 15.23333 C 63.6597 %
143 11-09-2019 00:00:00 15.74097 C 61.0833 %
144 12-09-2019 00:00:00 17.93194 C 67.6319 %
145 13-09-2019 00:00:00 18.68472 C 70.9653 %
146 14-09-2019 00:00:00 18.01181 C 65.5903 %
147 15-09-2019 00:00:00 17.60347 C 61.9722 %
148 16-09-2019 00:00:00 17.78264 C 60.7361 %
149 17-09-2019 00:00:00 17.67431 C 62.7083 %
150 18-09-2019 00:00:00 15.39444 C 57.2778 %
Sensor: Nr:Datum:Temp:Feuchte:
G-T/H 151 19-09-2019 00:00:00 14.12361 C 57.3125 %
152 20-09-2019 00:00:00 13.22639 C 59.3056 %
153 21-09-2019 00:00:00 15.10833 C 52.5278 %
154 22-09-2019 00:00:00 15.13194 C 59.2083 %
155 23-09-2019 00:00:00 16.27153 C 64.4028 %
156 24-09-2019 00:00:00 16.11528 C 66.2778 %
157 25-09-2019 00:00:00 16.20556 C 67.8681 %
158 26-09-2019 00:00:00 16.33542 C 69.4097 %
159 27-09-2019 00:00:00 16.76458 C 69.3611 %
160 28-09-2019 00:00:00 16.47083 C 68.9792 %
161 29-09-2019 00:00:00 16.41458 C 69.6528 %
162 30-09-2019 00:00:00 16.64236 C 66.7917 %
163 01-10-2019 00:00:00 16.54167 C 68.3542 %
164 02-10-2019 00:00:00 16.15694 C 67.3056 %
165 03-10-2019 00:00:00 14.67222 C 66.7361 %
166 04-10-2019 00:00:00 14.15556 C 70.1319 %
167 05-10-2019 00:00:00 14.31875 C 71.1667 %
168 06-10-2019 00:00:00 13.69306 C 70.7847 %
169 07-10-2019 00:00:00 13.58056 C 72.7153 %
170 08-10-2019 00:00:00 14.14097 C 74.1597 %
171 09-10-2019 00:00:00 14.23472 C 74.0486 %
172 10-10-2019 00:00:00 14.00139 C 74.0278 %
173 11-10-2019 00:00:00 13.98819 C 74.3333 %
174 12-10-2019 00:00:00 14.71181 C 71.7639 %
175 13-10-2019 00:00:00 15.13472 C 74.9097 %
Sensor: Nr:Datum:Temp:Feuchte:
G-T/H 176 14-10-2019 00:00:00 16.34722 C 74.3958 %
177 15-10-2019 00:00:00 15.98125 C 73.6597 %
178 16-10-2019 00:00:00 15.42708 C 73.2986 %
179 17-10-2019 00:00:00 15.28056 C 74.7292 %
180 18-10-2019 00:00:00 15.18681 C 74.6042 %
181 19-10-2019 00:00:00 14.72222 C 74.1944 %
182 20-10-2019 00:00:00 14.40278 C 81.1597 %
183 21-10-2019 00:00:00 14.60625 C 80.9028 %
184 22-10-2019 00:00:00 14.62153 C 77.5000 %
185 23-10-2019 00:00:00 14.00764 C 76.3542 %
186 24-10-2019 00:00:00 14.52986 C 78.0139 %
187 25-10-2019 00:00:00 15.10694 C 74.8681 %
188 26-10-2019 00:00:00 14.99028 C 74.2153 %
189 27-10-2019 00:00:00 14.43933 C 74.9333 %
190 28-10-2019 00:00:00 12.81389 C 71.1806 %
191 29-10-2019 00:00:00 12.35556 C 71.6389 %
192 30-10-2019 00:00:00 10.98611 C 65.8194 %
193 31-10-2019 00:00:00 9.49097 C 64.1736 %
194 01-11-2019 00:00:00 9.67014 C 69.2569 %
195 02-11-2019 00:00:00 12.01181 C 74.2222 %
196 03-11-2019 00:00:00 12.91806 C 75.4861 %
197 04-11-2019 00:00:00 12.97569 C 75.6250 %
198 05-11-2019 00:00:00 12.58194 C 75.9444 %
199 06-11-2019 00:00:00 12.33194 C 75.6528 %
200 07-11-2019 00:00:00 12.18403 C 75.3403 %
Sensor: Nr:Datum:Temp:Feuchte:
G-T/H 201 08-11-2019 00:00:00 11.13611 C 70.1181 %
202 09-11-2019 00:00:00 11.02014 C 69.0972 %
203 10-11-2019 00:00:00 9.95556 C 68.3056 %
204 11-11-2019 00:00:00 9.96458 C 71.2708 %
205 12-11-2019 00:00:00 10.11458 C 72.0972 %
206 13-11-2019 00:00:00 10.0125 C 72.4097 %
207 14-11-2019 00:00:00 9.73403 C 68.3958 %
208 15-11-2019 00:00:00 9.68819 C 69.4028 %
209 16-11-2019 00:00:00 9.6125 C 68.7083 %
210 17-11-2019 00:00:00 9.03819 C 69.9306 %
211 18-11-2019 00:00:00 9.47361 C 72.2500 %
212 19-11-2019 00:00:00 9.40903 C 72.0833 %
213 20-11-2019 00:00:00 8.93333 C 71.1181 %
214 21-11-2019 00:00:00 8.40559 C 70.8182 %
215 22-11-2019 00:00:00 8.70556 C 72.6736 %
216 23-11-2019 00:00:00 9.32569 C 73.0972 %
217 24-11-2019 00:00:00 9.08333 C 72.0764 %
218 25-11-2019 00:00:00 9.04375 C 73.5069 %
219 26-11-2019 00:00:00 9.85139 C 74.9375 %
220 27-11-2019 00:00:00 10.87847 C 75.9236 %
221 28-11-2019 00:00:00 11.51597 C 75.5069 %
222 29-11-2019 00:00:00 11.25208 C 72.3542 %
223 30-11-2019 00:00:00 9.66736 C 68.9097 %
224 01-12-2019 00:00:00 8.81806 C 70.1806 %
225 02-12-2019 00:00:00 8.35278 C 70.5417 %
Sensor: Nr:Datum:Temp:Feuchte:
G-T/H 226 03-12-2019 00:00:00 8.74514 C 73.3472 %
227 04-12-2019 00:00:00 8.79375 C 71.8403 %
228 05-12-2019 00:00:00 7.92014 C 69.1458 %
229 06-12-2019 00:00:00 7.57292 C 70.7014 %
230 07-12-2019 00:00:00 8.97014 C 74.4514 %
231 08-12-2019 00:00:00 10.25694 C 75.1667 %
232 09-12-2019 00:00:00 10.48403 C 74.1111 %
233 10-12-2019 00:00:00 9.34028 C 71.5903 %
234 11-12-2019 00:00:00 8.75694 C 73.1250 %
235 12-12-2019 00:00:00 8.81042 C 73.2500 %
236 13-12-2019 00:00:00 8.51944 C 72.1458 %
237 14-12-2019 00:00:00 8.92153 C 73.0764 %
238 15-12-2019 00:00:00 9.56736 C 74.6667 %
239 16-12-2019 00:00:00 9.90486 C 75.1389 %
240 17-12-2019 00:00:00 10.43333 C 75.4583 %
241 18-12-2019 00:00:00 10.925 C 75.4861 %
242 19-12-2019 00:00:00 9.76667 C 73.6667 %
243 20-12-2019 00:00:00 9.69375 C 75.0208 %
244 21-12-2019 00:00:00 10.06458 C 74.5833 %
245 22-12-2019 00:00:00 10.1375 C 75.1528 %
246 23-12-2019 00:00:00 10.30417 C 75.3681 %
247 24-12-2019 00:00:00 10.12639 C 74.9375 %
248 25-12-2019 00:00:00 10.24444 C 75.9653 %
249 26-12-2019 00:00:00 9.92708 C 75.2569 %
250 27-12-2019 00:00:00 9.69444 C 75.5833 %
Sensor: Nr:Datum:Temp:Feuchte:
G-T/H 251 28-12-2019 00:00:00 8.37639 C 70.3194 %
252 29-12-2019 00:00:00 7.21528 C 69.6875 %
253 30-12-2019 00:00:00 7.16944 C 69.0486 %
254 31-12-2019 00:00:00 6.93194 C 69.9722 %
255 01-01-2020 00:00:00 7.23125 C 70.8403 %
256 02-01-2020 00:00:00 7.28958 C 70.5417 %
257 03-01-2020 00:00:00 8.41389 C 73.4792 %
258 04-01-2020 00:00:00 9.12431 C 73.5833 %
259 05-01-2020 00:00:00 9.42917 C 73.5694 %
260 06-01-2020 00:00:00 9.33958 C 72.1181 %
261 07-01-2020 00:00:00 8.74583 C 72.1111 %
262 08-01-2020 00:00:00 9.18611 C 74.0347 %
263 09-01-2020 00:00:00 10.3875 C 76.5556 %
264 10-01-2020 00:00:00 11.02153 C 75.1389 %
265 11-01-2020 00:00:00 10.04097 C 73.2014 %
266 12-01-2020 00:00:00 9.14861 C 72.8958 %
267 13-01-2020 00:00:00 9.30833 C 74.5139 %
268 14-01-2020 00:00:00 9.78958 C 75.6597 %
269 15-01-2020 00:00:00 10.59028 C 75.5972 %
270 16-01-2020 00:00:00 10.82222 C 75.8264 %
271 17-01-2020 00:00:00 9.87847 C 74.9583 %
272 18-01-2020 00:00:00 9.38125 C 74.1597 %
273 19-01-2020 00:00:00 8.86667 C 74.2569 %
274 20-01-2020 00:00:00 8.75 C 73.1111 %
275 21-01-2020 00:00:00 7.77014 C 69.7847 %
Sensor: Nr:Datum:Temp:Feuchte:
G-T/H 276 22-01-2020 00:00:00 7.17083 C 69.5903 %
277 23-01-2020 00:00:00 7.63472 C 70.8611 %
278 24-01-2020 00:00:00 7.71319 C 70.9097 %
279 25-01-2020 00:00:00 7.96806 C 71.5139 %
280 26-01-2020 00:00:00 7.98611 C 72.6597 %
281 27-01-2020 00:00:00 8.21875 C 74.7500 %
282 28-01-2020 00:00:00 8.85833 C 75.1458 %
283 29-01-2020 00:00:00 8.44306 C 74.0000 %
284 30-01-2020 00:00:00 8.61389 C 74.8750 %
285 31-01-2020 00:00:00 10.32431 C 76.3958 %
286 01-02-2020 00:00:00 11.40556 C 76.3681 %
287 02-02-2020 00:00:00 11.15903 C 73.6736 %
288 03-02-2020 00:00:00 11.4875 C 75.0000 %
289 04-02-2020 00:00:00 10.54722 C 71.2847 %
290 05-02-2020 00:00:00 9.47153 C 71.9236 %
291 06-02-2020 00:00:00 8.34306 C 70.5208 %
292 07-02-2020 00:00:00 7.79097 C 69.9167 %
293 08-02-2020 00:00:00 7.33681 C 70.6528 %
294 09-02-2020 00:00:00 8.3 C 73.5694 %
295 10-02-2020 00:00:00 9.82708 C 73.9167 %
296 11-02-2020 00:00:00 9.18194 C 72.2431 %
297 12-02-2020 00:00:00 8.72083 C 72.8750 %
298 13-02-2020 00:00:00 8.20208 C 72.5208 %
299 14-02-2020 00:00:00 8.84653 C 74.7500 %
300 15-02-2020 00:00:00 8.93958 C 73.5903 %
Sensor: Nr:Datum:Temp:Feuchte:
G-T/H 301 16-02-2020 00:00:00 11.3125 C 68.1111 %
302 17-02-2020 00:00:00 11.77708 C 69.2778 %
303 18-02-2020 00:00:00 10.43056 C 67.4028 %
304 19-02-2020 00:00:00 9.94514 C 69.4583 %
305 20-02-2020 00:00:00 9.73472 C 71.6875 %
306 21-02-2020 00:00:00 9.56875 C 71.4931 %
307 22-02-2020 00:00:00 9.25625 C 72.0625 %
308 23-02-2020 00:00:00 10.38403 C 73.7708 %
309 24-02-2020 00:00:00 10.40903 C 71.9792 %
310 25-02-2020 00:00:00 10.88819 C 73.0278 %
311 26-02-2020 00:00:00 10.02917 C 68.9306 %
312 27-02-2020 00:00:00 9.17986 C 71.0208 %
313 28-02-2020 00:00:00 8.31042 C 73.7708 %
314 29-02-2020 00:00:00 9.28125 C 75.1597 %
315 01-03-2020 00:00:00 9.80486 C 74.3403 %
316 02-03-2020 00:00:00 9.67847 C 73.5833 %
317 03-03-2020 00:00:00 9.53681 C 73.3194 %
318 04-03-2020 00:00:00 8.95833 C 73.5139 %
319 05-03-2020 00:00:00 9.15833 C 73.9861 %
320 06-03-2020 00:00:00 9.48958 C 74.9514 %
321 07-03-2020 00:00:00 9.38611 C 74.0556 %
322 08-03-2020 00:00:00 9.99583 C 74.7292 %
323 09-03-2020 00:00:00 10.54861 C 73.8819 %
324 10-03-2020 00:00:00 10.28056 C 73.3819 %
325 11-03-2020 00:00:00 11.72083 C 75.8889 %
Sensor: Nr:Datum:Temp:Feuchte:
G-T/H 326 12-03-2020 00:00:00 12.29653 C 71.3333 %
327 13-03-2020 00:00:00 11.08333 C 68.2014 %
328 14-03-2020 00:00:00 10.32361 C 70.1250 %
329 15-03-2020 00:00:00 10.87153 C 65.1667 %
330 16-03-2020 00:00:00 10.71667 C 66.3819 %
331 17-03-2020 00:00:00 11.47153 C 70.7292 %
332 18-03-2020 00:00:00 11.42569 C 70.3472 %
333 19-03-2020 00:00:00 12.36736 C 67.4583 %
334 20-03-2020 00:00:00 12.53217 C 67.5944 %
335 21-03-2020 00:00:00 11.55903 C 63.9097 %
336 22-03-2020 00:00:00 9.66111 C 61.2292 %
337 23-03-2020 00:00:00 8.67431 C 62.8819 %
338 24-03-2020 00:00:00 8.04028 C 63.8611 %
339 25-03-2020 00:00:00 7.80833 C 63.4722 %
340 26-03-2020 00:00:00 8.04028 C 64.0208 %
341 27-03-2020 00:00:00 9.19722 C 61.4583 %
342 28-03-2020 00:00:00 10.48264 C 59.6944 %
343 29-03-2020 00:00:00 10.14855 C 60.5362 %
344 30-03-2020 00:00:00 8.62708 C 59.5417 %
345 31-03-2020 00:00:00 8.58472 C 62.8194 %
346 01-04-2020 00:00:00 8.20764 C 62.6181 %
347 02-04-2020 00:00:00 8.18194 C 64.4097 %
348 03-04-2020 00:00:00 9.17708 C 61.3125 %
349 04-04-2020 00:00:00 7.05486 C 55.4306 %
350 05-04-2020 00:00:00 9.21944 C 61.8056 %
Sensor: Nr:Datum:Temp:Feuchte:
G-T/H 351 06-04-2020 00:00:00 10.2125 C 63.7569 %
352 07-04-2020 00:00:00 13.11319 C 59.7083 %
353 08-04-2020 00:00:00 13.17153 C 61.2847 %
354 09-04-2020 00:00:00 13.65556 C 60.0069 %
355 10-04-2020 00:00:00 13.73681 C 60.7847 %
356 11-04-2020 00:00:00 13.3125 C 61.3611 %
357 12-04-2020 00:00:00 13.45 C 63.2500 %
358 13-04-2020 00:00:00 13.15556 C 59.7986 %
359 14-04-2020 00:00:00 11.44375 C 58.7847 %
360 15-04-2020 00:00:00 11.16875 C 56.8333 %
361 16-04-2020 00:00:00 11.42917 C 52.3542 %
362 17-04-2020 00:00:00 14.90625 C 55.3958 %
363 18-04-2020 00:00:00 14.63333 C 62.5347 %
364 19-04-2020 00:00:00 14.45833 C 64.6250 %
365 20-04-2020 00:00:00 13.53681 C 59.6042 %
366 21-04-2020 00:00:00 13.28819 C 58.7986 %

Maximal/Minimal-Werte vom 22.04.2019 - 21.04.2020

Sensor Min Max Avg
Temp
(Aussen-T/F)
-5 °C
29-12-2019  07:23:17
40.5 °C
25-07-2019  16:18:17
11.16 °C
Feuchte
(Aussen-T/F)
20 %
22-04-2019  00:10:17
70 %
25-04-2019  06:58:18
31.39 %
Temp
(G-T/H)
4.2 °C
04-04-2020  07:31:18
29.4 °C
29-06-2019  19:28:17
13.62 °C
Feuchte
(G-T/H)
25 %
29-06-2019  18:04:17
83 %
20-10-2019  15:57:17
66.86 %

Die Daten stammen von einer Davis Vantage Pro 2 Wetter-Station und werden unter Linux mit der Software wview2wettercgi und aufbereitet. Alle Angaben erfolgen ohne Gewähr für ihre Vollständigkeit oder Richtigkeit.
Kontakt: Rainer Krienke krienke@uni-koblenz.de . Meine Webseiten an der Uni Koblenz oder privat.
Version: $Revision: 0.78 $